Location: Arrodets-la-Barthe
(43.0306°N, 0.2829°E)
Time: 18:54:04
(UTC+00:00)

Lacrosse 4 Rocket - Pass Details

Date: 24 October 2021
Orbit: 537 x 619 km, 68.0° (Epoch: 02 December)

Event Time Altitude Azimuth Distance (km) Brightness Sun altitude
Rises 19:05:39 0° 323° (NW) 2,822 5.5 -23.2°
Reaches altitude 10° 19:07:58 10° 316° (NW) 1,931 4.7 -23.7°
Maximum altitude 19:12:00 38° 248° (WSW) 917 2.8 -24.4°
Enters shadow 19:14:47 18° 188° (S) 1,489 3.5 -24.9°
